User: anonymous   Login
Location: Solon
(41.3849°N, 81.4081°W)
Time: 16:24:31
(UTC-04:00)
Language:

CZ-2C R/B - Orbit

View from above orbital plane
View from above orbital plane
View from above satellite
View from above satellite

Ground track
Ground track

The orbit data is extracted from the following two-line orbital elements,

1 28480U 04046B   17229.87319566 -.00000027 +00000-0 +50032-5 0  9997
2 28480 098.1968 322.0921 0142813 042.9387 065.0865 14.25644609663002
Epoch (UTC): 17 August 2017 20:57:24
Eccentricity: 0.0142813
inclination: 98.1968°
perigee height: 704 km
apogee height: 909 km
right ascension of ascending node: 322.0921°
argument of perigee: 42.9387°
revolutions per day: 14.25644609
mean anomaly at epoch: 65.0865°
orbit number at epoch: 66300

The dashed part of the orbit path shows where the satellite is in the earth's shadow,  

DLR